Regional Weather Roundup
Issued by NWS

Home | Current Version | Previous Version | Text Only | Print | Product List | Glossary On
Versions: 1 2 3 4 5 6 7 8 9 10 11 12 13 14 15 16 17 18 19 20 21 22 23 24 25 26 27 28 29 30 31 32 33 34 35 36 37 38 39 40 41 42 43 44 45 46 47 48 49 50
000
ASUS43 KDTX 052010
RWRMI
MICHIGAN HOURLY REGIONAL WEATHER ROUNDUP
NATIONAL WEATHER SERVICE DETROIT/PONTIAC MI
300 PM EST THU MAR 05 2015

NOTE: "FAIR" INDICATES FEW OR NO CLOUDS BELOW 12,000 FEET WITH NO
SIGNIFICANT WEATHER AND/OR OBSTRUCTION TO VISIBILITY.

MIZ047>049-052>055-059>063-066>070-074>076-081>083-052100-
SOUTHEAST LOWER MICHIGAN

CITY           SKY/WX    TMP DP  RH WIND       PRES   REMARKS
ADRIAN         PTSUNNY   19   0  43 NW8       30.39S WCI   9
ALMA           MOSUNNY   15  -1  48 W10       30.39F WCI   2
ANN ARBOR      SUNNY     16  -2  45 W13       30.38S WCI   2
BAD AXE        SUNNY     11  -4  51 W8        30.38S WCI   0
CARO           SUNNY     13  -3  47 W3        30.39S
DETROIT CITY   SUNNY     20  -1  40 N8        30.38S WCI  10
DETROIT        MOSUNNY   19  -2  39 NW12      30.39S WCI   7
FLINT          SUNNY     15  -2  46 W12       30.39F WCI   2
GROSSE ILE     FAIR      19  -2  38 NW9G17    30.38R WCI   9
HILLSDALE      PTSUNNY   17   2  51 NW9       30.36S WCI   6
HOWELL         SUNNY     15  -1  51 NW13G18   30.37S WCI   0

CITY           SKY/WX    TMP DP  RH WIND       PRES   REMARKS
JACKSON        MOSUNNY   15   0  51 W10       30.38R WCI   2
LAMBERTVILLE   MOSUNNY   19   3  49 NW5       30.40S WCI  13
LANSING        MOSUNNY   15   0  51 VRB7      30.40S WCI   5
LAPEER         FAIR      13  -5  44 N7        30.37S WCI   3
MASON          MOSUNNY   16   0  48 NW14      30.38S WCI   2
MONROE         SUNNY     18   0  45 W9        30.38S WCI   6
MT. CLEMENS    MOSUNNY   16  -3  42 N8        30.36S WCI   5
PONTIAC        MOSUNNY   14  -2  49 NW16      30.35S WCI  -2
PORT HOPE        N/A     12  -3  51 VRB7      30.38R WCI   1
PORT HURON     SUNNY     12  -6  44 W9G17     30.39R WCI   0
TRI CITIES     SUNNY     16  -2  45 NW10      30.39F WCI   4
TROY           SUNNY     19  -4  35 NW12G17   30.40R WCI   6
SAGINAW HB     SUNNY     16   0  48 NW8       30.40S WCI   5
$$
MIZ043>046-050>051-056>058-064>065-071>073-077>080-052100-
SOUTHWEST LOWER MICHIGAN

CITY           SKY/WX    TMP DP  RH WIND       PRES   REMARKS
BATTLE CREEK   MOSUNNY   19   2  47 N10       30.38F WCI   7
BENTON HARBOR  SUNNY     18   7  62 W10G17    30.44R WCI   6
BIG RAPIDS     CLOUDY    15   4  62 NW7       30.36F WCI   5
COLDWATER      CLOUDY    18   3  51 W8        30.39R WCI   8
FREMONT        CLOUDY    15   4  61 W10       30.41R WCI   2
HOLLAND        PTSUNNY   18   3  52 W13       30.44S WCI   5
GRAND RAPIDS   PTSUNNY   17   1  49 NW8       30.40F WCI   7
IONIA          MOCLDY    17   1  48 NW12      30.38F WCI   5
KALAMAZOO      PTSUNNY   19   2  47 NW10      30.40S WCI   7
LUDINGTON      CLOUDY    13   1  59 NW7       30.43S WCI   3
MARSHALL       MOSUNNY   17   0  47 NW7       30.37S WCI   7
MOUNT PLEASANT MOSUNNY   17   0  47 W9        30.38F WCI   6
MUSKEGON       LGT SNOW  15   5  64 W14       30.44S WCI   0
SOUTH HAVEN    SUNNY     19   6  56 NW7       30.43S WCI  10
$$
MIZ016>042-052100-
NORTHERN LOWER MICHIGAN

CITY           SKY/WX    TMP DP  RH WIND       PRES   REMARKS
ALPENA         MOSUNNY   15  -4  42 VRB7      30.35F WCI   5
BEAVER ISLAND  PTSUNNY   10   1  65 W9        30.38F WCI  -3
BELLAIRE       PTSUNNY   14  -2  49 N6        30.40S WCI   5
CADILLAC       CLOUDY    14   1  56 W12       30.31S WCI   0
CHARLEVOIX     SUNNY     11  -1  56 CALM      30.42S
FRANKFORT      CLOUDY    12   2  65 W7        30.42S WCI   2
GAYLORD        SUNNY     11  -5  48 W10G18    30.30F WCI  -3
GRAYLING       SUNNY     13  -4  46 NW8G17    30.33S WCI   2
HARBOR SPRINGS SUNNY      8  -1  66 SW8       30.38S WCI  -4
HOUGHTON LAKE  MOSUNNY   14  -3  47 W8        30.32F WCI   3
MANISTEE       CLOUDY    12   0  57 W12       30.42S WCI  -2
OSCODA         CLOUDY    17  -3  42 CALM      30.35S
PELLSTON       SUNNY     11  -3  53 NW14      30.37F WCI  -5
ROGERS CITY    SUNNY     12   1  61 NW7       30.36F WCI   1
TRAVERSE CITY  CLOUDY    13   2  61 N6        30.38F WCI   4
$$
MIZ007>008-015-052100-
EASTERN UPPER MICHIGAN

CITY           SKY/WX    TMP DP  RH WIND       PRES   REMARKS
KINROSS        PTSUNNY   18  -4  38 W10       30.32F WCI   6
MACKINAC ISLAN SUNNY      8  -1  64 SW9       30.36S WCI  -5
NEWBERRY       CLOUDY    11  -1  57 SW5       30.32F WCI   3
S. S. MARIE    SUNNY     13  -5  44 NW10      30.32F WCI   0
MUNISING         N/A     13  -2  51 NE10      30.35F WCI   0
$$
MIZ004>006-011>014-085-052100-
CENTRAL UPPER MICHIGAN

CITY           SKY/WX    TMP DP  RH WIND       PRES   REMARKS
MANISTIQUE     SUNNY     14  -4  45 SW7       30.35F WCI   4
ESCANABA       SUNNY     10   0  61 S12       30.38F WCI  -4
MENOMINEE      SUNNY     14  -6  41 W7G16     30.38F WCI   4
SAWYER-GWINN   MOSUNNY   14  -4  44 W12G17    30.29F WCI   0
$$
MIZ001>003-009>011-084-052100-
WESTERN UPPER MICHIGAN

CITY           SKY/WX    TMP DP  RH WIND       PRES   REMARKS
IRON MOUNTAIN  SUNNY     15  -8  35 W14       30.30F WCI   0
HOUGHTON       MOSUNNY    8  -3  61 W17       30.29F WCI -10
COPPER HARBOR    N/A     12  -4  48 NW8G18    30.32F WCI   0
IRONWOOD       SUNNY     10  -9  40 W13       30.29F WCI  -5
$$

ABBREVIATIONS USED IN REMARKS
   TC - TEMPERATURE IN CELSIUS
  WCI - WIND CHILL INDEX
   HX - HEAT INDEX
  VSB - VISIBILITY




USA.gov is the U.S. government's official web portal to all federal, state and local government web resources and services.